Location: Big Sandy Campground
(37.4666°N, 119.5821°W)
Time: 22:55:46
(UTC+00:00)

COSMOS 2428 - Pass Details

Date: 03 August 2024
Orbit: 842 x 857 km, 70.9° (Epoch: 08 September)

Event Time Altitude Azimuth Distance (km) Brightness Sun altitude
Exits shadow 12:05:35 15° 240° (WSW) 2,138 4.1 -11.2°
Maximum altitude 12:09:42 34° 300° (WNW) 1,353 3.5 -10.6°
Drops below altitude 10° 12:14:51 10° 5° (N) 2,479 5.7 -9.7°
Sets 12:17:33 0° 14° (NNE) 3,421 6.6 -9.2°
